Date,TemperatureHighF,TemperatureAvgF,TemperatureLowF,DewpointHighF,DewpointAvgF,DewpointLowF,HumidityHigh,HumidityAvg,HumidityLow,PressureMaxIn,PressureMinIn,WindSpeedMaxMPH,WindSpeedAvgMPH,GustSpeedMaxMPH,PrecipitationSumIn
2012-6-13,63.7,63.7,63.7,63.1,63.1,63.1,98,98,98,30.09,30.09,0,0,0,0.00
2012-6-14,61.9,60.8,59.5,56.3,56.1,55.8,89,84,81,30.25,30.25,4,3,8,2.77
2012-6-15,73.2,65.2,58.6,60.1,56.6,49.3,94,75,46,30.30,30.24,18,8,26,0.00
2012-6-16,70.2,63.4,58.5,60.8,56.6,51.6,88,79,59,30.33,30.26,17,9,20,0.00
2012-6-17,63.5,59.6,56.3,56.1,52.9,50.0,90,79,67,30.28,30.12,15,7,17,0.00
2012-6-18,64.8,62.6,56.5,59.0,56.3,52.3,89,80,72,30.17,30.12,15,8,15,0.00
2012-6-19,70.0,67.0,62.1,64.2,61.2,57.0,89,82,77,30.18,30.08,18,10,18,0.00
2012-6-20,86.7,73.9,66.9,73.0,69.0,64.0,93,85,63,30.08,29.89,22,11,23,0.00
2012-6-21,87.3,77.9,72.3,73.0,70.5,68.5,93,79,56,29.90,29.75,19,8,21,0.00
2012-6-22,77.2,74.4,72.1,71.1,69.9,68.0,90,86,79,29.77,29.74,12,5,12,0.00
2012-6-23,79.7,76.1,68.5,67.5,63.8,59.0,81,66,52,29.94,29.84,42,11,42,0.03
2012-6-24,78.4,73.3,66.6,66.2,60.7,53.4,83,66,47,30.00,29.91,18,9,18,0.00
2012-6-25,72.0,67.3,63.1,68.2,64.0,59.2,98,89,81,29.83,29.66,40,13,40,0.60
2012-6-26,70.0,65.0,58.5,60.8,56.6,51.8,84,75,64,29.73,29.61,33,19,33,0.00
2012-6-27,77.4,72.9,66.9,62.2,57.4,52.5,72,59,44,29.78,29.66,31,12,35,0.00
2012-6-28,80.8,74.4,68.5,68.4,62.7,53.1,89,68,47,29.81,29.72,20,11,20,0.00
2012-6-29,84.0,75.8,71.1,75.0,70.6,66.9,92,84,72,29.73,29.59,27,7,27,0.00
2012-6-30,86.7,80.6,73.2,72.1,68.0,59.9,87,67,42,29.75,29.66,25,13,25,0.00
2012-7-1,84.0,77.5,70.3,73.6,69.1,66.9,92,76,59,29.83,29.75,24,8,24,0.04
2012-7-2,80.4,74.7,70.0,68.4,66.2,63.3,93,75,58,29.90,29.82,23,6,23,0.00
2012-7-3,87.1,78.8,69.6,69.4,63.1,57.4,92,60,40,29.94,29.84,17,6,17,0.00
2012-7-4,81.1,76.5,73.8,74.3,71.3,67.6,93,84,74,29.84,29.71,26,11,26,0.09
2012-7-5,86.9,78.5,72.0,73.2,70.8,66.6,97,78,56,29.86,29.67,14,6,14,0.01
2012-7-6,81.7,73.7,68.4,72.9,67.3,64.4,97,81,60,29.93,29.84,18,6,18,0.00
2012-7-7,82.0,77.6,74.5,73.2,71.9,68.7,93,83,67,29.87,29.72,25,12,25,0.03
2012-7-8,84.6,80.1,72.0,72.5,69.1,60.3,91,70,45,29.86,29.78,15,8,15,0.04
2012-7-9,81.3,74.3,68.7,71.4,61.6,54.1,85,65,47,29.97,29.84,15,6,15,0.00
2012-7-10,81.0,75.2,67.8,68.2,61.2,52.0,88,63,47,30.09,29.96,16,5,16,0.00
2012-7-11,79.2,74.7,69.4,69.6,67.7,64.0,91,79,63,30.17,30.09,12,5,13,0.00
2012-7-13,81.9,77.1,74.7,70.5,66.4,62.1,78,70,58,30.18,30.15,13,6,13,0.00
2012-7-14,83.1,78.4,73.8,71.1,67.3,61.2,87,70,49,30.17,30.11,29,12,29,0.00
2012-7-15,80.8,76.9,73.6,75.7,71.8,68.0,96,85,73,30.14,29.91,22,9,22,0.11
2012-7-16,84.4,77.5,72.9,75.4,72.2,70.0,96,84,63,29.91,29.76,28,13,29,0.21
2012-7-17,85.5,80.4,73.9,74.7,71.7,66.4,94,76,55,29.82,29.72,29,11,30,0.00
2012-7-18,89.8,82.1,74.7,77.4,73.7,71.2,96,77,61,29.87,29.73,31,11,33,0.04
2012-7-19,75.4,72.0,65.1,73.8,65.5,58.5,96,80,65,30.00,29.86,21,6,21,0.05
2012-7-20,71.2,65.9,62.1,66.2,61.9,58.3,93,87,78,30.07,29.97,22,6,22,0.23
2012-7-21,73.2,68.0,63.1,63.9,61.8,58.3,95,81,63,30.13,30.04,16,6,16,0.01
2012-7-22,78.4,71.5,64.4,66.6,63.6,60.6,92,77,61,30.17,30.12,17,5,17,0.00
2012-7-23,78.3,74.8,70.9,73.9,70.5,64.9,94,87,80,30.13,29.78,29,13,29,0.04
2012-7-24,83.8,77.9,73.6,74.5,71.7,62.8,94,82,66,29.79,29.56,37,14,38,0.00
2012-7-25,79.2,73.1,67.5,67.3,60.3,55.8,74,64,51,29.87,29.69,33,13,33,0.00
2012-7-26,80.4,75.7,70.7,75.2,70.3,63.7,97,84,70,29.80,29.62,68,15,68,0.02
2012-7-27,83.1,75.9,70.5,73.9,71.8,68.7,95,88,71,29.89,29.64,27,11,32,0.02
2012-7-28,71.2,69.5,67.3,70.0,68.5,66.0,98,97,93,29.96,29.88,21,7,22,0.78
2012-7-29,76.5,69.5,66.4,69.1,66.8,64.2,98,91,74,30.06,29.89,18,6,18,0.11
2012-7-30,74.3,69.5,63.9,67.8,64.7,62.1,95,85,72,30.13,30.06,15,6,15,0.00
2012-7-31,72.0,70.2,67.8,68.7,66.5,64.4,93,88,82,30.11,29.90,19,6,19,0.00
2012-8-1,78.6,74.0,69.1,72.5,70.0,65.5,95,88,79,29.94,29.85,16,8,16,0.00
2012-8-2,81.3,75.9,71.2,74.7,72.5,70.2,98,90,78,29.92,29.83,20,8,20,0.00
2012-8-3,85.3,79.0,75.9,77.0,75.1,73.2,96,88,69,30.10,29.92,22,10,23,0.00
2012-8-4,82.2,78.8,76.3,76.6,75.5,72.3,96,90,74,30.22,30.10,17,7,17,0.00
2012-8-5,82.2,79.3,74.3,77.7,76.2,71.6,94,90,80,30.21,29.96,48,17,51,0.00
2012-8-6,81.5,76.8,72.1,74.3,70.1,64.6,98,81,58,29.99,29.93,31,10,31,0.29
2012-8-7,81.9,73.5,68.4,70.3,65.0,61.3,89,75,58,30.02,29.96,12,5,12,0.00
2012-8-8,81.5,76.4,72.0,74.3,71.9,68.5,95,86,66,30.00,29.94,13,5,13,0.00
2012-8-9,83.1,77.8,74.8,76.5,74.3,73.0,96,89,77,29.97,29.89,21,7,21,0.00
2012-8-10,80.1,77.3,73.2,76.3,74.9,72.1,98,93,86,29.93,29.77,47,13,47,0.33
2012-8-11,80.4,78.1,76.5,76.8,75.1,70.7,96,90,80,29.93,29.80,29,13,30,0.11
2012-8-12,80.1,77.1,73.6,74.7,73.2,71.4,95,88,79,29.93,29.87,20,11,20,0.03
2012-8-13,81.3,76.4,73.0,73.0,67.8,63.5,90,75,56,29.98,29.91,20,10,20,0.00
2012-8-14,83.8,76.5,70.2,72.7,70.0,62.2,94,81,55,29.97,29.90,18,4,18,0.00
2012-8-15,75.9,72.9,68.4,73.2,69.5,65.1,94,89,81,29.92,29.83,29,6,29,0.05
2012-8-16,80.6,75.2,71.1,70.5,68.7,65.7,94,81,64,29.87,29.83,24,9,24,0.02
2012-8-17,80.8,77.3,71.2,73.8,69.6,65.3,86,78,65,29.87,29.78,28,12,29,0.00
2012-8-18,74.1,67.5,63.1,70.2,64.4,59.7,97,90,71,29.91,29.81,29,6,29,0.71
2012-8-19,73.8,69.8,65.7,63.0,59.2,56.5,79,69,59,29.97,29.89,22,7,22,0.00
2012-8-20,75.6,70.8,66.6,65.7,62.6,59.2,87,76,62,29.94,29.84,11,3,11,0.00
2012-8-21,78.3,72.7,70.0,68.9,63.9,57.9,86,75,52,30.09,29.91,14,7,14,0.00
2012-8-22,80.1,73.7,67.6,68.0,65.9,62.2,94,77,59,30.15,30.08,15,4,15,0.00
2012-8-23,78.4,74.1,68.9,71.2,68.3,64.0,96,83,64,30.16,30.10,20,6,20,0.00
2012-8-24,82.6,75.5,69.4,72.1,69.6,65.7,95,83,58,30.19,30.11,12,3,12,0.00
2012-8-25,75.9,72.6,69.4,70.2,67.1,60.8,98,84,65,30.30,30.18,18,7,18,0.00
2012-8-26,73.9,70.7,66.6,68.0,65.6,60.4,95,84,67,30.34,30.24,17,7,17,0.00
2012-8-27,80.1,74.1,67.5,74.7,69.8,63.5,95,87,68,30.24,29.96,26,8,26,0.00
2012-8-28,81.7,77.4,72.5,75.0,71.5,65.3,94,83,64,29.96,29.75,39,15,39,0.01
2012-8-29,74.1,69.8,65.5,66.6,56.8,47.7,81,64,42,30.00,29.85,21,9,21,0.00
2012-8-30,77.2,71.0,64.8,66.6,57.6,48.4,80,63,39,30.09,30.00,23,9,23,0.00
2012-8-31,83.8,77.4,72.1,73.8,67.2,59.9,86,71,47,30.04,29.85,29,17,31,0.00
2012-9-1,81.0,75.4,69.6,70.5,67.6,63.7,86,77,61,30.09,29.88,24,11,25,0.00
2012-9-2,75.7,71.4,67.6,68.9,64.6,59.7,92,79,66,30.12,30.03,15,5,15,0.00
2012-9-3,72.0,69.0,64.2,67.5,64.7,62.1,96,86,75,30.20,30.11,19,8,21,0.00
2012-9-4,76.5,73.9,70.9,74.7,71.4,65.8,98,92,80,30.14,29.88,44,10,44,0.59
2012-9-5,77.7,75.4,72.7,75.6,73.7,70.9,98,94,88,29.88,29.76,36,13,37,0.29
2012-9-6,73.9,71.7,68.5,72.1,69.2,66.6,98,92,85,29.91,29.80,12,5,12,0.00
2012-9-7,81.0,75.2,71.8,74.7,71.9,69.4,97,90,79,29.94,29.86,18,7,19,0.00
2012-9-8,79.3,75.6,68.2,75.2,72.3,62.4,98,90,80,29.90,29.62,41,18,41,0.18
2012-9-9,73.8,68.3,65.3,65.3,59.8,55.2,87,75,55,29.87,29.74,23,8,23,0.20
2012-9-10,69.6,65.9,60.6,61.0,53.9,47.8,83,66,49,30.10,29.83,32,16,34,0.00
2012-9-11,68.7,62.7,57.6,58.3,50.5,46.4,75,65,50,30.28,30.10,26,11,26,0.00
2012-9-12,73.9,68.4,64.8,63.5,60.9,56.3,85,77,57,30.37,30.28,16,7,17,0.00
2012-9-13,73.4,69.7,66.7,65.7,63.3,61.3,87,80,68,30.38,30.28,19,9,20,0.00
2012-9-14,73.9,70.0,66.6,66.0,64.4,62.2,91,83,69,30.29,30.09,18,9,18,0.00
2012-9-15,70.3,67.5,62.8,66.0,57.8,50.9,92,72,53,30.09,30.01,30,15,31,0.00
2012-9-16,70.0,65.5,61.0,60.4,53.9,49.8,82,67,54,30.12,30.01,22,11,22,0.00
2012-9-17,73.2,66.4,58.5,61.5,58.2,52.3,89,76,59,30.12,30.04,15,5,15,0.00
2012-9-18,75.4,71.9,67.1,71.4,67.2,58.6,97,85,74,30.06,29.68,60,23,60,0.00
2012-9-19,71.1,65.5,60.6,70.0,55.6,47.5,98,72,48,30.18,29.72,41,14,44,0.51
2012-9-20,65.8,61.6,57.2,55.4,52.9,48.0,81,73,59,30.22,30.13,23,9,24,0.00
2012-9-21,65.7,61.1,57.6,58.6,55.4,52.5,90,82,69,30.15,30.02,17,6,17,0.00
2012-9-22,71.4,63.8,56.5,68.5,59.8,53.6,96,87,68,30.02,29.82,32,8,32,0.00
2012-9-23,71.1,64.6,60.1,68.4,53.4,43.0,92,68,43,30.10,29.82,33,13,33,0.03
2012-9-24,64.8,60.0,54.0,53.1,48.4,42.8,86,66,47,30.17,30.08,28,8,28,0.00
2012-9-25,68.7,65.1,60.3,59.5,52.1,43.0,78,63,52,30.21,30.14,34,18,34,0.00
2012-9-26,70.9,68.7,66.4,66.4,63.1,58.6,92,82,76,30.17,30.02,36,16,36,0.00
2012-9-27,73.9,68.1,63.1,65.7,62.9,59.4,91,84,68,30.20,30.03,23,8,23,0.04
2012-9-28,69.3,65.2,61.0,66.9,60.4,53.8,96,85,72,30.22,29.92,30,13,30,0.04
2012-9-29,61.0,59.0,57.7,59.5,57.1,55.9,96,94,91,29.94,29.88,17,6,17,0.07
2012-9-30,64.2,60.2,57.4,58.1,55.7,50.4,94,86,66,29.89,29.75,38,9,40,0.00
2012-10-1,67.5,62.8,56.3,58.8,54.4,50.5,87,74,66,29.98,29.78,48,19,49,0.00
2012-10-2,68.7,64.7,62.1,65.3,60.4,56.1,97,86,70,30.06,29.97,13,4,14,0.15
2012-10-3,66.9,65.5,63.7,66.4,64.9,63.1,99,98,97,30.12,29.99,14,5,15,0.03
2012-10-4,67.8,65.6,63.9,66.2,65.0,63.5,99,98,94,30.15,30.04,10,3,10,0.12
2012-10-5,73.0,67.0,62.8,65.7,62.9,56.3,98,88,56,30.06,29.94,16,7,16,0.12
2012-10-6,71.8,67.2,57.9,66.7,62.1,46.2,94,84,65,29.98,29.76,34,16,35,0.00
2012-10-7,58.3,54.0,49.3,49.3,44.7,38.7,95,72,57,30.12,29.98,30,9,31,0.07
2012-10-8,55.0,52.5,49.6,48.2,45.2,42.1,94,76,67,30.31,30.09,23,7,23,0.02
2012-10-9,58.1,55.8,53.4,53.2,51.6,46.4,94,86,75,30.27,30.11,23,10,24,0.00
2012-10-10,67.5,60.3,54.0,63.5,55.4,49.6,98,85,62,30.11,29.77,41,13,43,0.20
2012-10-11,61.3,54.8,51.1,52.7,42.3,37.4,76,63,51,30.18,29.88,41,20,43,0.00
2012-10-12,57.9,53.2,45.7,49.5,40.7,28.4,81,63,44,30.41,30.06,36,20,38,0.00
2012-10-13,52.9,46.9,41.9,44.2,31.7,24.4,73,56,38,30.54,30.33,23,-1,24,0.00
2012-10-14,65.1,61.1,52.9,59.9,53.9,43.7,88,77,71,30.34,30.00,35,18,35,0.00
2012-10-15,67.6,65.5,61.0,63.1,61.4,59.2,95,87,81,30.00,29.63,35,19,35,0.02
2012-10-16,61.5,55.6,50.2,59.7,45.8,38.5,95,70,53,29.91,29.60,43,19,43,0.04
2012-10-17,55.8,51.4,47.5,49.8,42.0,37.8,82,70,60,30.03,29.91,29,-3,29,0.00
2012-10-18,61.5,58.3,53.1,59.5,53.1,48.9,94,83,71,30.10,30.02,17,6,18,0.00
2012-10-19,66.6,64.0,61.3,65.7,62.4,59.2,98,95,91,30.03,29.70,28,11,29,0.44
2012-10-20,67.6,63.7,60.1,66.4,59.2,44.8,98,86,56,29.82,29.65,37,12,38,0.10
2012-10-21,63.7,59.3,54.7,49.6,46.7,44.1,76,63,51,29.98,29.82,41,20,41,0.00
2012-10-22,64.4,60.2,56.1,56.3,48.7,44.6,77,66,55,30.06,29.97,35,21,35,0.00
2012-10-23,61.9,59.7,55.6,54.5,49.0,44.2,93,68,56,30.14,30.05,20,7,20,0.05
2012-10-24,56.5,54.8,53.1,54.0,50.4,46.6,96,86,73,30.23,30.12,15,4,16,0.16
2012-10-25,60.6,57.3,53.8,54.1,50.3,46.0,83,77,68,30.30,30.22,14,4,15,0.00
2012-10-26,63.5,60.5,57.7,56.7,54.8,52.0,88,82,68,30.26,30.13,12,5,12,0.00
2012-10-27,61.7,59.9,57.7,57.0,54.2,46.6,91,82,66,30.14,29.95,20,6,21,0.00
2012-10-28,60.4,57.0,54.7,54.0,51.4,45.3,91,82,66,29.95,29.67,36,16,38,0.00
2012-10-29,59.0,56.7,54.7,55.2,53.0,50.9,89,87,86,29.67,29.34,51,23,51,0.00
2012-11-2,53.4,50.4,46.4,43.5,39.6,33.4,78,67,47,29.70,29.58,39,18,47,0.00
2012-11-3,51.6,47.2,44.2,39.4,36.3,32.7,78,66,51,29.90,29.69,37,23,38,0.00
2012-11-4,52.5,45.2,42.1,39.7,35.4,33.1,77,69,54,29.99,29.90,34,16,34,0.00
2012-11-5,44.1,41.4,37.6,34.7,29.4,21.2,74,62,50,30.20,29.97,28,14,29,0.00
2012-11-6,42.6,38.2,35.1,31.3,24.3,20.5,69,57,46,30.28,30.13,26,8,26,0.00
2012-11-7,41.7,38.7,34.7,37.6,33.8,30.7,97,83,71,30.14,29.69,45,23,49,0.01
2012-11-8,43.0,39.3,35.1,37.2,34.2,31.3,96,82,69,29.85,29.66,43,25,43,0.01
2012-11-9,52.3,46.0,40.3,39.2,31.5,23.9,78,58,36,30.20,29.85,31,20,38,0.00
2012-11-10,52.9,49.9,48.6,46.0,41.6,37.6,88,73,64,30.47,30.19,25,11,29,0.00
2012-11-11,58.8,53.6,47.3,52.3,48.7,41.4,92,84,69,30.55,30.47,20,7,22,0.00
2012-11-12,63.0,57.5,50.4,59.4,55.1,49.5,97,92,79,30.52,30.24,23,9,28,0.00
2012-11-13,61.9,51.5,43.0,59.9,47.8,32.5,96,87,66,30.46,30.16,30,16,34,0.05
2012-11-14,48.0,43.2,40.3,34.5,30.4,26.1,74,61,45,30.54,30.45,25,12,29,0.00
2012-11-15,43.9,40.3,37.9,34.7,33.1,30.0,81,75,65,30.48,30.33,21,9,25,0.00
2012-11-16,46.6,43.1,40.3,36.0,32.7,27.5,80,67,49,30.46,30.32,20,9,24,0.00
2012-11-17,50.5,44.6,40.6,40.5,34.9,29.5,85,69,52,30.68,30.47,21,7,22,0.00
2012-11-18,48.9,44.4,41.0,39.6,37.1,33.4,88,76,60,30.72,30.62,19,8,21,0.00
2012-11-19,49.8,44.5,40.6,43.0,38.8,36.1,86,80,74,30.62,30.28,17,9,20,0.00
2012-11-20,48.4,44.3,39.7,41.9,39.3,37.0,90,83,72,30.28,30.15,15,7,18,0.00
2012-11-21,51.8,46.8,43.0,43.2,39.2,36.1,88,75,62,30.27,30.18,18,8,20,0.00
2012-11-22,51.6,46.8,43.2,45.0,43.0,41.4,94,87,73,30.31,30.18,14,5,17,0.00
2012-11-23,52.2,48.0,42.8,48.0,45.5,41.5,96,91,81,30.17,29.70,15,4,17,0.00
2012-11-24,51.1,44.4,37.9,47.7,32.3,23.4,94,63,44,29.81,29.63,40,25,47,0.00
2012-11-25,41.4,39.2,37.2,31.8,26.5,22.5,71,60,51,29.98,29.81,36,25,49,0.00
2012-11-26,46.6,43.1,38.8,33.3,29.1,25.2,73,58,43,30.30,29.97,40,16,45,0.00
2012-11-27,43.3,39.4,36.1,36.9,34.4,27.9,94,83,57,30.36,30.22,23,6,24,0.36
2012-11-28,40.6,38.1,36.0,35.1,30.6,25.0,93,75,57,30.27,30.17,29,16,33,0.08
2012-11-29,44.4,40.5,37.6,36.1,30.5,26.1,76,68,55,30.38,30.27,31,20,36,0.00
2012-11-30,45.1,40.7,36.0,35.8,31.0,24.4,80,68,58,30.54,30.33,31,12,39,0.00
2012-12-1,45.7,39.3,35.1,43.7,36.1,29.3,94,88,78,30.61,30.47,18,11,24,0.00
2012-12-2,51.4,47.0,43.3,48.7,45.4,42.1,97,94,90,30.46,30.14,19,7,22,0.00
2012-12-3,54.7,49.6,43.0,49.3,46.7,39.9,97,90,77,30.33,30.12,20,8,22,0.00
2012-12-4,55.6,49.6,42.3,54.0,48.2,39.7,97,95,89,30.35,30.04,18,7,20,0.01
2012-12-5,55.6,48.8,37.0,54.1,42.2,24.1,96,79,56,30.22,29.92,41,19,49,0.02
2012-12-6,39.0,34.9,30.9,30.2,23.6,19.0,77,63,53,30.40,30.22,35,11,38,0.00
2012-12-7,45.9,42.3,34.0,44.6,37.9,27.9,97,84,74,30.35,30.08,8,2,10,0.04
2012-12-8,49.5,47.6,45.0,48.9,47.1,44.2,98,98,97,30.07,29.89,14,6,18,0.48
2012-12-9,48.7,46.8,43.2,48.2,43.0,39.2,98,87,71,30.28,30.02,25,4,29,0.07
2012-12-10,56.8,53.6,47.8,56.5,53.2,46.9,99,99,97,30.08,29.56,22,12,27,1.04
2012-12-11,53.6,44.9,38.5,53.2,37.7,27.5,99,77,59,30.23,29.58,21,13,25,0.04
2012-12-12,41.4,38.8,36.0,31.6,27.5,24.1,73,64,52,30.49,30.22,22,10,26,0.00
2012-12-13,46.0,40.0,36.5,36.0,30.9,26.6,83,70,52,30.52,30.36,13,5,16,0.00
2012-12-14,47.5,43.1,39.4,38.1,32.4,29.7,78,66,52,30.36,30.15,27,13,30,0.00
2012-12-15,45.5,42.1,39.2,35.8,33.2,30.9,78,71,61,30.36,30.25,21,8,23,0.00
2012-12-16,43.9,42.3,41.0,42.6,38.7,35.8,96,87,77,30.31,29.99,26,14,32,0.07
2012-12-17,47.1,44.5,41.2,46.6,43.8,40.1,98,97,95,29.99,29.72,27,11,30,0.40
2012-12-18,49.1,47.1,45.5,48.6,46.2,39.6,98,97,77,29.73,29.49,33,10,37,0.60
2012-12-19,47.3,44.3,40.5,40.1,34.9,30.7,83,70,58,30.11,29.56,40,26,45,0.01
2012-12-20,44.4,41.0,37.6,39.7,33.6,29.8,85,75,67,30.26,29.97,23,11,26,0.00
2012-12-21,54.5,46.2,39.6,54.0,41.9,31.3,98,85,69,30.00,29.13,48,23,60,0.38
2012-12-22,39.9,38.1,36.5,35.8,29.0,22.8,86,70,56,29.79,29.34,50,31,56,0.00
2012-12-23,43.0,39.4,37.2,32.4,28.2,23.9,74,64,51,29.98,29.79,40,24,44,0.00
2012-12-24,41.2,37.6,35.4,35.2,27.3,24.8,93,66,54,30.14,29.96,33,10,36,0.03
2012-12-25,38.5,36.1,32.0,37.0,32.9,24.3,96,88,73,30.29,29.96,25,13,28,0.13
2012-12-26,41.9,34.7,28.9,40.8,28.9,19.6,97,80,64,30.35,29.67,42,16,51,0.05
2012-12-27,45.3,44.1,42.3,44.6,43.0,40.6,98,96,91,29.67,29.25,45,23,50,0.28